Location: Hengforden
(52.3167°N, 6.1333°E)
Time: 16:37:47
(UTC+00:00)

Lacrosse 4 Rocket - Pass Details

Date: 14 June 2025
Orbit: 511 x 577 km, 68.0° (Epoch: 20 July)

Event Time Altitude Azimuth Distance (km) Brightness Sun altitude
Rises 22:31:50 0° 306° (NW) 2,775 5.8 -13.1°
Reaches altitude 10° 22:36:19 10° 261° (W) 1,883 4.1 -13.3°
Maximum altitude 22:36:42 10° 256° (WSW) 1,877 4.0 -13.3°
Drops below altitude 10° 22:37:04 10° 251° (WSW) 1,883 4.0 -13.3°
Enters shadow 22:39:31 - 222° (SW) 2,219 4.1 -13.4°
